DW4188 Victoria Point QNL AU current weather conditions

sailwx.info

Air temperature 19.4° C
Dewpoint 10.2° C

Last reported at 2014-Sep-16 20:35 UTC.
Time now 2014-Sep-16 21:30 UTC

Location: S 27°35' E 153°18'.
View on Google Maps.

See reports from other nearby stations

  
Tides and Currents Weather Stations Pressure Air Temp Water Temp Dewpoint Dewpoint Depression Visibility Wind Speed Wind Dir Waves Ship Positions
date/time (UTC)wind fromknots sea level pressurealtimeterstation pressurevisibilityair tempwater tempwave heightnotes
2014-Sep-16 20:35 19.4
2014-Sep-16 20:26 19.4
2014-Sep-16 20:08 19.4
2014-Sep-16 19:32 20.0
2014-Sep-16 19:23 20.0
2014-Sep-16 19:14 19.4
2014-Sep-16 18:56 19.4
2014-Sep-16 18:47 18.9
2014-Sep-16 18:38 327 18.3
2014-Sep-16 18:11 325 1 gusting 5 17.8
2014-Sep-16 18:02 331 2 gusting 5 17.8
2014-Sep-16 17:44 325 1 gusting 5 18.3
2014-Sep-16 17:35 324 2 gusting 5 18.3
2014-Sep-16 17:08 316 1 gusting 5 18.3
2014-Sep-16 16:59 323 2 gusting 5 18.3
2014-Sep-16 16:50 314 4 gusting 5 18.9
2014-Sep-16 16:23 326 3 gusting 6 18.9
2014-Sep-16 16:14 325 2 gusting 6 18.9
2014-Sep-16 16:05 321 3 gusting 6 18.9
2014-Sep-16 15:47 326 3 gusting 8 19.4
2014-Sep-16 15:29 323 3 gusting 8 19.4
2014-Sep-16 15:02 331 5 gusting 9 19.4
2014-Sep-16 14:53 332 5 gusting 8 19.4
2014-Sep-16 14:44 329 3 gusting 8 19.4
2014-Sep-16 14:35 335 2 gusting 11 19.4
2014-Sep-16 14:17 334 3 gusting 8 20.0
2014-Sep-16 14:08 343 3 gusting 10 20.0
2014-Sep-16 13:59 341 6 gusting 9 20.0
2014-Sep-16 13:32 338 2 gusting 6 20.0
2014-Sep-16 12:56 339 1 gusting 6 20.0
2014-Sep-16 12:47 347 0 gusting 4 20.6
2014-Sep-16 11:17 339 2 gusting 10 20.6
2014-Sep-16 11:08 343 3 gusting 14 20.6
2014-Sep-16 10:50 343 5 gusting 8 20.6
2014-Sep-16 10:41 342 6 gusting 11 20.6
2014-Sep-16 10:23 350 4 gusting 8 21.1
2014-Sep-16 10:05 342 3 gusting 11 20.6
2014-Sep-16 08:26 327 3 gusting 9 21.1
2014-Sep-16 07:59 317 6 gusting 12 21.1
2014-Sep-16 07:32 343 6 gusting 11 21.7
2014-Sep-16 07:14 340 7 gusting 13 22.2
2014-Sep-16 06:56 352 5 gusting 10 22.2
2014-Sep-16 06:11 353 3 gusting 12 23.3
2014-Sep-16 06:02 006 5 gusting 12 23.9
2014-Sep-16 05:53 005 6 gusting 11 23.9
2014-Sep-16 04:59 012 2 gusting 8 25.6
2014-Sep-16 04:41 008 5 gusting 9 26.1
2014-Sep-16 04:32 014 4 gusting 7 25.6
2014-Sep-16 04:23 004 3 gusting 8 25.6
2014-Sep-16 04:14 349 2 gusting 9 25.6
2014-Sep-16 04:05 353 4 gusting 9 25.6
2014-Sep-16 03:56 353 3 gusting 11 25.6
2014-Sep-16 03:47 345 4 gusting 7 25.6
2014-Sep-16 02:44 353 3 gusting 8 25.0
2014-Sep-16 00:38 351 5 gusting 9 23.3
2014-Sep-16 00:29 353 5 gusting 8 23.3
2014-Sep-16 00:11 002 2 gusting 7 23.3
2014-Sep-15 23:53 355 3 gusting 5 23.3
2014-Sep-15 23:26 337 6 gusting 8 21.7
2014-Sep-15 23:17 343 4 gusting 7 21.7
2014-Sep-15 23:08 330 6 gusting 7 21.7
2014-Sep-15 22:59 334 3 gusting 8 21.1
2014-Sep-15 22:50 333 5 gusting 6 21.1
2014-Sep-15 22:32 343 2 gusting 6 20.6
2014-Sep-15 21:56 332 1 gusting 4 19.4
2014-Sep-15 21:38 323 3 gusting 6 18.9
2014-Sep-15 21:29 327 2 gusting 5 18.3
2014-Sep-15 21:11 313 1 gusting 4 17.8
2014-Sep-15 20:21 295 0 gusting 2 18.3
2014-Sep-15 20:12 292 1 gusting 2 18.3
2014-Sep-15 20:03 18.9
2014-Sep-15 19:54 19.4
2014-Sep-15 19:45 19.4
2014-Sep-15 19:36 19.4
2014-Sep-15 19:27 19.4
2014-Sep-15 19:18 19.4
2014-Sep-15 19:09 18.9
2014-Sep-15 18:51 19.4
2014-Sep-15 18:42 18.3
2014-Sep-15 18:33 18.3
2014-Sep-15 18:06 317 0 gusting 5 18.3
2014-Sep-15 17:39 341 4 gusting 6 18.9
2014-Sep-15 17:30 345 2 gusting 6 18.9
2014-Sep-15 17:12 337 4 gusting 6 18.9
2014-Sep-15 17:03 341 1 gusting 7 18.9
2014-Sep-15 16:36 329 3 gusting 6 18.9
2014-Sep-15 16:27 332 3 gusting 5 18.9
2014-Sep-15 16:09 320 3 gusting 6 18.9
2014-Sep-15 15:51 331 2 gusting 5 18.9
2014-Sep-15 15:42 327 2 gusting 9 18.9
2014-Sep-15 15:33 332 3 gusting 6 18.9
2014-Sep-15 15:06 333 3 gusting 8 18.9
2014-Sep-15 14:48 329 4 gusting 8 18.9
2014-Sep-15 14:39 332 5 gusting 7 18.9
2014-Sep-15 14:30 332 2 gusting 7 18.9
2014-Sep-15 14:21 327 2 gusting 7 18.9
2014-Sep-15 14:12 326 3 gusting 6 18.9
2014-Sep-15 13:54 336 4 gusting 7 18.9
2014-Sep-15 13:45 327 2 gusting 6 18.9
2014-Sep-15 13:27 320 3 gusting 6 18.9
2014-Sep-15 13:18 327 3 gusting 5 19.4
2014-Sep-15 13:00 326 2 gusting 6 19.4
2014-Sep-15 12:24 339 4 gusting 8 19.4
2014-Sep-15 11:57 338 2 gusting 7 19.4
2014-Sep-15 11:39 337 4 gusting 6 19.4
2014-Sep-15 11:21 341 4 gusting 7 19.4
2014-Sep-15 11:03 334 3 gusting 6 19.4
2014-Sep-15 10:54 341 1 gusting 5 20.0
2014-Sep-15 10:36 352 2 gusting 5 20.0
2014-Sep-15 10:27 348 2 gusting 5 20.0
2014-Sep-15 10:09 349 1 gusting 3 20.6
2014-Sep-15 10:00 352 0 gusting 3 20.6
2014-Sep-15 09:33 357 0 gusting 3 21.1
2014-Sep-15 09:24 346 0 gusting 4 21.1
2014-Sep-15 09:15 347 0 gusting 2 21.1
2014-Sep-15 09:06 355 21.7
2014-Sep-15 08:57 003 1 gusting 3 21.7
2014-Sep-15 08:48 001 0 gusting 2 21.1
2014-Sep-15 08:39 002 21.7
2014-Sep-15 08:21 353 1 gusting 2 21.7
2014-Sep-15 08:12 335 21.1
2014-Sep-15 08:03 354 21.1
2014-Sep-15 07:37 358 2 gusting 5 21.7
2014-Sep-15 07:28 009 1 gusting 5 21.7
2014-Sep-15 07:19 354 1 gusting 5 21.7
2014-Sep-15 07:10 351 3 gusting 6 21.7
2014-Sep-15 06:52 351 3 gusting 6 22.2
2014-Sep-15 06:43 351 4 gusting 6 22.2
2014-Sep-15 06:25 349 3 gusting 8 22.8
2014-Sep-15 06:16 343 2 gusting 9 22.8
2014-Sep-15 06:07 350 5 gusting 7 23.3
2014-Sep-15 05:58 004 2 gusting 6 23.3
2014-Sep-15 05:49 002 4 gusting 9 23.9
2014-Sep-15 05:22 009 5 gusting 6 24.4
2014-Sep-15 05:13 359 2 gusting 7 23.9
2014-Sep-15 04:55 353 4 gusting 7 24.4
2014-Sep-15 04:46 355 6 gusting 7 24.4
2014-Sep-15 04:37 015 5 gusting 7 24.4
2014-Sep-15 04:28 009 4 gusting 6 24.4
2014-Sep-15 04:19 001 3 gusting 6 24.4
2014-Sep-15 03:43 348 4 gusting 7 23.9
2014-Sep-15 03:25 358 5 gusting 7 23.3
2014-Sep-15 02:13 003 3 gusting 6 24.4
2014-Sep-15 02:04 017 4 gusting 8 24.4
2014-Sep-15 01:55 007 6 gusting 6 24.4
2014-Sep-15 01:37 009 5 gusting 7 23.9
2014-Sep-15 01:28 359 3 gusting 6 23.9
2014-Sep-15 00:52 345 2 gusting 9 23.3
2014-Sep-15 00:07 350 5 gusting 9 22.8
2014-Sep-14 23:49 316 3 gusting 6 22.2
2014-Sep-14 23:22 292 3 gusting 9 21.7
2014-Sep-14 22:55 270 3 gusting 6 21.1
2014-Sep-14 22:46 283 2 gusting 7 20.6
2014-Sep-14 22:28 292 3 gusting 6 20.0
2014-Sep-14 21:37 17.2
2014-Sep-14 21:19 16.1